User: anonymous   Login
Location: Caribou
(46.8667°N, 68.0167°W)
Time: 21:04:40
(UTC-04:00)
Language:

SL-08 RB Rocket - Orbit

View from above orbital plane
View from above orbital plane
View from above satellite
View from above satellite

Ground track
Ground track

The orbit data is extracted from the following two-line orbital elements,

1 26387U 00033D   16205.81681419  .00000107  00000-0  27000-4 0  9995
2 26387  98.0151 271.6783 0025316 301.8938 173.2615 14.68170515859695
Epoch (UTC): 23 July 2016 19:36:12
Eccentricity: 0.0025316
inclination: 98.0151°
perigee height: 649 km
apogee height: 685 km
right ascension of ascending node: 271.6783°
argument of perigee: 301.8938°
revolutions per day: 14.68170515
mean anomaly at epoch: 173.2615°
orbit number at epoch: 85969

The dashed part of the orbit path shows where the satellite is in the earth's shadow,  

DLR